Lapse_Rate
7.3 7.3 7.8 8.2 8.3 8.5 8.7 9.5 9.7 9.3 9.2 9.2 9.7 9.3 9.0 9.2 8.7 8.6 8.4 8.2 8.0 7.6 7.4 7.2 7.1 7.0 7.0 6.8 6.7 6.6 6.6 6.7 6.9 6.8 6.7 6.7 6.8 6.8 6.8 6.7 6.8 6.8 6.7 6.8
7.0 7.3 8.0 7.6 7.8 8.3 8.7 9.5 9.7 9.0 9.2 9.1 9.4 9.3 8.7 9.1 8.7 8.4 8.6 8.3 7.9 8.0 7.8 7.5 7.2 7.0 6.9 6.7 6.6 6.7 6.8 6.8 6.6 6.6 6.7 6.7 6.6 6.5 6.6 6.6 6.6 6.7 6.9 6.6
7.7 7.8 7.5 7.8 8.0 8.4 9.2 9.6 9.5 9.6 9.1 9.1 9.2 9.2 9.2 9.1 9.1 8.6 8.2 8.3 7.9 7.8 7.7 7.6 7.4 7.1 6.8 6.6 6.6 6.7 6.6 6.5 6.6 6.7 6.6 6.5 6.5 6.4 6.3 6.4 6.5 6.7 6.7 6.9
7.4 7.5 7.5 7.6 8.2 8.7 9.7 8.6 8.9 9.2 9.4 9.7 9.1 9.8 9.2 9.1 8.8 9.0 8.8 8.5 8.3 7.8 7.5 7.5 7.5 7.2 7.1 6.8 6.8 6.8 6.7 6.6 6.6 6.8 6.7 6.7 6.6 6.4 6.2 6.3 6.4 6.6 6.7 6.8
7.7 7.5 7.5 7.9 8.4 8.4 9.2 8.3 8.4 8.6 9.3 9.3 8.9 9.6 9.6 9.0 8.9 8.9 8.7 8.3 8.2 8.3 8.0 7.7 7.5 7.4 7.2 7.0 7.0 7.2 7.2 7.1 6.9 6.8 6.7 6.7 6.6 6.5 6.4 6.3 6.2 6.2 6.3 6.6
7.4 7.5 7.6 8.1 7.7 7.9 8.1 8.1 8.3 8.4 9.6 9.7 9.7 9.2 9.7 9.6 9.1 9.6 9.0 8.6 8.3 8.4 8.4 7.9 7.7 7.7 7.6 7.4 7.3 7.2 7.0 7.1 7.1 6.9 6.8 6.7 6.6 6.5 6.4 6.4 6.3 6.3 6.3 6.3
7.4 7.6 7.6 7.7 7.7 7.8 7.9 8.6 9.6 9.7 9.9 9.9 8.7 8.7 9.5 8.8 8.8 8.7 8.9 8.8 8.3 8.4 8.4 8.1 7.9 7.8 7.8 7.8 7.7 7.6 7.7 7.7 7.5 7.3 7.2 7.1 6.8 6.6 6.4 6.3 6.4 6.3 6.3 5.3
7.9 7.9 7.6 7.7 8.2 8.0 8.2 9.5 9.8 9.5 9.8 9.7 8.1 8.8 9.1 8.5 8.7 8.8 9.0 8.8 8.5 8.1 8.2 8.3 7.9 7.9 7.8 7.5 7.2 7.1 7.1 7.2 7.2 7.0 6.8 6.6 6.5 6.6 6.5 6.6 6.5 6.3 6.3 6.3
8.0 8.8 7.7 7.8 8.1 8.2 8.1 8.5 9.0 9.0 8.8 9.3 9.6 8.5 8.5 8.2 8.2 8.7 8.9 8.5 8.4 8.2 8.2 8.5 8.1 7.7 7.8 7.8 7.6 7.2 7.2 7.1 7.0 6.9 6.6 6.4 6.1 5.8 5.9 6.2 6.3 6.3 6.3 6.4
7.9 8.8 8.0 7.8 8.1 8.1 8.2 8.8 8.8 9.3 9.5 9.5 9.4 8.6 9.5 8.3 8.1 8.3 8.5 8.4 8.2 8.3 8.2 8.5 8.5 8.3 8.1 8.0 7.7 7.4 7.2 7.0 6.8 6.6 6.3 6.1 6.0 5.9 5.8 5.8 5.8 5.9 6.1 6.2
7.6 7.9 7.9 7.9 7.9 8.7 7.9 8.3 8.8 9.5 9.0 9.8 9.8 9.7 8.2 8.1 8.1 8.0 8.4 8.1 8.1 8.6 8.7 8.6 8.5 8.4 8.6 8.3 7.8 7.5 7.3 7.1 6.8 6.7 6.4 6.2 5.9 5.6 5.5 5.5 5.6 5.7 5.7 5.8
7.3 7.9 8.4 8.3 7.8 8.2 8.6 9.5 9.0 9.6 9.2 9.2 8.9 9.5 8.4 8.0 7.9 8.1 8.0 8.3 7.8 8.0 8.0 8.4 8.5 8.6 8.3 7.9 7.8 7.6 7.4 7.1 6.9 6.6 6.4 6.1 5.8 5.5 5.4 5.5 5.6 5.6 5.5 5.5
7.6 7.7 8.2 7.8 7.8 7.9 8.1 8.4 8.9 9.4 9.1 9.6 9.4 9.6 8.5 8.3 8.2 8.2 8.0 7.8 8.1 7.9 8.0 8.2 8.3 8.2 8.1 7.9 7.6 7.4 7.2 6.9 6.7 6.4 6.3 6.0 5.9 5.6 5.6 5.7 5.8 5.8 5.7 5.9
7.9 8.2 8.4 9.3 8.9 9.1 8.6 8.6 8.9 8.9 9.6 9.6 9.3 9.3 8.7 7.9 8.0 7.9 8.0 8.1 8.0 8.1 8.1 8.0 8.1 8.2 8.1 7.8 7.4 7.3 7.0 6.7 6.4 6.2 6.1 6.1 5.9 5.8 5.9 6.1 6.2 6.1 6.1 6.0
7.9 7.9 8.0 8.9 9.2 9.3 9.0 9.1 8.6 9.0 9.4 9.6 9.5 9.2 8.3 7.7 7.8 7.8 7.9 7.9 8.0 8.0 7.9 7.7 7.8 7.8 7.6 7.3 7.0 7.0 6.7 6.3 6.3 6.3 6.3 6.2 6.1 6.1 6.2 6.2 6.2 6.3 6.3 6.3
7.9 8.0 8.1 8.7 8.5 8.8 9.0 8.9 8.7 8.8 9.0 8.9 8.7 8.6 7.9 7.8 7.4 7.5 7.6 7.6 7.7 7.9 7.8 7.6 7.5 7.4 7.2 7.0 6.9 6.8 6.8 6.7 6.6 6.5 6.5 6.3 6.2 6.2 6.1 6.1 6.2 6.2 6.1 6.2
8.3 8.2 8.1 8.9 8.3 8.7 8.9 8.7 8.7 8.8 8.4 8.7 8.6 8.5 7.9 7.7 7.7 7.6 7.5 7.4 7.4 7.4 7.4 7.3 7.1 6.9 7.1 7.0 7.1 6.8 6.8 6.8 6.6 6.4 6.4 6.2 6.2 6.2 6.1 6.1 6.0 6.0 6.0 6.0
8.9 8.5 8.7 9.4 8.3 9.0 9.1 8.8 8.6 8.5 8.2 8.3 8.0 8.0 7.9 7.7 7.6 7.2 7.1 7.1 7.2 7.3 7.1 7.0 7.0 6.9 6.7 6.6 6.7 6.7 6.6 6.4 6.5 6.5 6.5 6.4 6.2 6.1 6.1 6.0 5.8 5.8 6.0 6.1
8.3 8.7 8.7 8.3 8.6 8.8 8.3 8.6 8.4 8.3 8.0 8.0 7.8 7.8 7.6 7.3 7.0 6.9 6.8 6.8 6.8 6.8 6.6 6.4 6.4 6.4 6.4 6.5 6.5 6.6 6.7 6.9 6.7 6.5 6.3 6.2 6.1 6.0 6.0 5.8 5.7 5.5 5.4 5.3
8.3 8.5 8.8 8.6 9.5 9.7 9.3 8.6 8.6 8.0 8.6 7.9 7.9 7.7 7.5 7.2 7.1 6.3 6.7 6.8 6.7 6.7 6.7 6.6 6.6 6.7 6.7 6.7 6.7 6.8 6.7 6.5 6.4 6.3 6.2 6.1 6.1 6.1 6.2 5.8 5.7 5.6 5.4 5.7
8.2 8.5 8.7 8.7 9.0 8.9 8.4 8.4 8.3 8.2 8.6 8.0 7.8 7.5 7.2 6.7 6.9 6.8 6.7 6.7 6.7 6.7 6.7 6.7 6.7 6.7 6.8 6.8 6.8 6.6 6.5 6.4 6.3 6.2 6.2 6.2 6.2 5.9 5.8 5.7 5.7 5.8 5.8 5.9
8.7 8.7 8.8 9.1 8.9 9.3 8.1 8.0 7.9 8.2 8.0 7.7 7.4 7.2 7.0 7.0 6.9 6.8 6.7 6.7 6.6 6.5 6.5 6.5 6.6 6.6 6.5 6.5 6.4 6.3 6.2 6.2 6.3 6.2 6.3 6.5 6.3 6.0 5.9 5.8 5.9 5.7 5.6 5.9
8.4 8.6 9.2 8.4 8.9 8.4 8.1 7.9 7.9 7.8 7.6 7.5 7.3 7.2 7.1 7.0 6.8 6.6 6.5 6.4 6.3 6.3 6.3 6.4 6.4 6.3 6.1 6.1 6.1 6.2 6.3 6.1 6.2 6.5 6.8 6.7 6.3 6.1 6.0 5.9 5.7 5.5 5.6 5.7
8.5 8.3 8.1 8.4 8.1 7.9 7.8 7.8 7.7 7.6 7.5 7.2 7.1 7.0 6.8 6.8 6.5 6.4 6.3 6.3 6.4 6.4 6.4 6.5 6.2 6.0 6.1 6.2 6.1 6.0 6.2 6.2 6.3 6.6 6.6 6.4 6.2 5.8 5.8 5.7 5.4 5.4 5.5 5.5
7.8 8.2 8.2 8.2 7.9 7.9 7.7 7.6 7.3 7.2 7.3 7.1 6.9 6.9 6.6 6.5 6.5 6.4 6.4 6.4 6.4 6.4 6.3 6.2 6.1 6.1 6.0 6.0 6.0 6.1 6.3 6.3 6.3 6.2 6.2 6.2 6.1 5.9 5.7 5.4 5.3 5.1 5.4 5.3
8.2 7.8 8.2 8.1 8.0 7.6 7.5 7.3 7.2 7.1 6.9 6.7 6.6 6.6 6.6 6.5 6.5 6.5 6.5 6.5 6.4 6.3 6.3 6.1 6.1 6.0 6.1 6.1 6.1 6.3 6.3 6.2 6.3 6.4 6.4 6.1 5.9 5.8 5.6 5.3 5.6 5.1 5.2 5.4
Wind_Speed
12 9 11 12 9 3 1 5 11 5 2 6 4 9 12 13 13 14 14 14 15 14 15 15 15 14 13 12 12 13 13 12 9 9 8 8 8 7 7 10 11 11 12 13
7 13 9 3 4 6 5 7 9 5 1 8 6 5 9 13 13 14 14 14 14 14 14 14 15 14 14 14 13 13 13 13 12 9 8 7 5 6 7 9 10 12 14 14
14 8 8 7 9 10 9 9 10 8 8 3 6 8 9 11 11 11 12 14 13 15 15 14 14 14 14 14 15 15 14 13 12 11 7 6 6 7 8 7 8 10 14 15
11 8 10 10 10 11 9 3 3 8 13 10 8 6 11 10 13 15 15 15 15 15 13 14 14 15 14 15 15 14 14 13 12 11 9 10 9 8 7 6 6 8 12 13
9 13 12 11 10 10 6 5 3 5 9 3 10 9 10 10 12 16 17 17 16 16 16 15 14 14 14 14 13 12 12 11 11 10 11 9 10 8 6 5 9 8 9 12
2 1 7 7 7 4 10 8 6 5 7 9 6 8 9 10 14 13 17 16 16 16 16 14 13 13 12 12 11 10 11 11 11 11 11 12 11 8 7 5 6 6 6 5
13 13 7 9 12 8 12 11 7 8 8 5 5 6 12 4 4 7 10 17 17 16 16 15 15 13 13 13 11 10 10 11 11 12 11 11 10 9 9 8 7 7 8 8
14 16 15 12 13 11 13 9 4 6 5 7 4 6 3 0 6 7 10 13 18 16 16 16 17 14 13 13 12 12 11 10 11 11 11 9 10 7 7 7 6 7 8 10
15 12 11 7 7 8 9 10 5 2 2 6 5 3 8 1 2 3 10 13 13 16 17 17 16 16 13 12 13 13 11 11 11 10 9 9 8 8 6 7 6 7 8 10
8 12 12 7 8 3 8 10 7 6 3 5 7 4 2 1 3 1 7 11 14 15 15 15 14 13 12 11 11 11 12 11 10 9 8 7 6 5 3 3 6 8 10 11
9 10 11 10 12 14 7 10 8 3 5 4 3 6 4 2 6 3 4 9 12 14 15 13 12 11 10 10 10 11 10 10 9 8 7 5 4 3 3 5 7 9 10 12
16 11 10 18 5 4 10 15 14 7 10 2 6 1 6 3 3 5 5 6 10 12 12 11 11 10 10 10 10 10 9 9 8 6 5 4 2 3 4 6 9 10 11 13
18 10 9 8 8 6 12 9 12 5 4 5 7 3 5 3 4 6 8 7 10 10 10 10 8 9 9 8 8 8 8 7 6 5 4 4 5 5 6 8 9 11 12 14
17 15 16 13 15 16 13 12 14 14 9 8 10 9 4 1 3 2 5 8 7 9 10 10 8 7 6 6 6 6 5 2 3 3 4 6 7 7 8 9 11 12 13 15
15 17 15 17 6 9 14 14 15 16 15 9 3 4 2 1 3 5 6 5 8 11 12 9 8 7 7 6 5 2 2 2 3 5 7 8 9 9 11 11 11 12 14 15
11 11 12 14 11 14 14 15 16 16 10 11 6 6 0 2 2 3 3 2 5 7 7 6 6 6 5 4 2 2 2 3 5 7 9 10 11 12 13 13 13 13 15 16
13 10 11 16 10 13 15 16 18 14 12 9 9 2 3 4 5 6 3 2 3 6 8 9 7 6 5 3 4 3 5 6 8 9 11 12 13 13 14 14 14 14 15 14
14 15 9 8 10 14 3 7 14 11 8 7 3 1 2 3 5 6 4 4 7 9 9 8 7 6 5 4 4 5 6 8 9 11 12 13 14 15 14 15 15 15 14 15
14 11 5 6 14 5 5 6 9 12 11 10 7 6 6 6 8 9 8 9 10 11 10 8 7 6 5 6 7 7 8 9 11 14 15 16 16 16 15 15 15 14 14 14
9 9 10 8 14 17 4 13 6 7 8 11 9 8 7 7 7 10 9 11 11 10 8 7 6 5 6 6 7 10 12 13 13 14 15 15 15 15 16 16 15 13 14 13
11 12 14 9 10 6 8 9 10 9 2 8 9 7 8 6 5 12 11 10 10 9 8 6 7 7 9 10 10 11 11 11 12 13 14 15 15 16 16 14 13 12 12 12
11 9 8 7 12 10 10 9 9 4 3 8 10 9 10 11 11 11 10 9 8 7 7 8 7 8 9 9 9 10 11 11 13 13 14 15 17 14 13 14 10 13 13 12
7 3 4 5 3 8 5 5 6 2 5 7 11 13 13 12 11 9 8 7 7 8 7 7 7 7 7 8 9 11 11 12 13 14 14 14 15 14 13 11 13 11 11 11
4 3 4 9 6 8 7 5 6 7 9 10 12 11 11 11 9 8 7 6 5 6 7 7 8 8 9 11 11 10 10 12 13 13 15 14 14 14 13 9 9 9 9 11
1 9 9 7 9 10 7 10 12 13 13 14 12 11 11 10 9 6 6 5 5 6 8 8 8 7 8 9 10 10 11 12 13 13 12 11 12 14 13 12 10 10 9 9
7 7 6 4 12 2 13 11 13 14 13 12 13 12 10 9 7 5 6 7 6 6 6 7 7 9 10 11 11 11 12 12 12 13 12 12 12 11 10 11 13 8 13 17
Wind_Direction
204 226 217 207 220 8 272 233 173 155 129 245 223 125 158 169 178 174 176 175 181 183 181 183 190 189 192 192 195 202 204 205 205 206 219 224 236 234 245 252 252 249 246 247
187 225 208 177 212 219 219 186 175 142 165 246 167 163 158 174 188 180 182 184 180 172 175 184 190 195 198 195 200 202 209 205 207 211 222 246 256 252 259 261 257 251 252 255
215 156 141 194 193 206 200 231 157 189 166 204 189 181 180 183 189 194 194 187 189 176 176 181 186 196 200 202 201 206 208 208 211 227 216 221 248 250 256 255 254 244 249 256
231 148 195 208 205 225 193 143 176 182 204 211 213 205 189 182 198 199 198 196 191 187 184 176 187 193 199 205 208 208 205 208 209 210 224 234 258 271 290 272 277 281 288 285
177 191 200 206 201 202 94 152 176 198 218 205 185 267 137 181 220 206 201 196 194 190 190 188 192 195 203 206 205 204 210 209 212 205 228 229 237 260 269 259 260 272 266 262
242 116 224 194 139 182 140 157 173 211 236 221 203 246 245 199 229 241 198 194 192 191 191 191 188 192 201 207 207 195 197 208 208 213 218 231 251 259 277 277 291 285 288 280
201 202 166 182 151 157 200 192 193 211 204 258 109 234 252 16 358 271 242 191 189 190 190 191 188 194 197 202 200 195 194 202 204 210 218 224 236 242 255 267 277 309 290 305
198 185 189 180 206 184 212 258 287 203 195 130 148 236 223 346 293 256 235 218 185 192 189 193 193 192 196 196 193 194 185 197 197 204 212 216 223 230 237 235 286 296 316 311
204 208 145 198 180 209 165 221 22 263 120 261 145 184 240 224 332 256 212 210 186 188 188 189 193 192 194 192 190 188 181 190 193 199 202 209 218 234 278 300 301 302 317 315
203 213 182 143 168 155 271 159 193 221 242 265 134 260 356 288 353 87 209 197 190 188 188 184 189 190 194 191 179 181 182 190 192 200 202 203 209 222 254 281 304 315 310 309
204 236 156 171 206 201 176 205 233 24 316 311 233 119 82 358 356 320 223 210 195 191 190 187 184 173 184 180 175 182 182 182 181 186 185 188 185 211 278 308 316 305 306 304
208 210 206 207 108 288 224 209 200 218 174 229 319 22 126 157 289 286 256 208 201 198 189 187 190 161 185 184 178 176 175 180 176 167 175 188 232 274 305 311 303 305 305 303
187 217 187 182 167 183 211 206 221 231 285 220 276 97 136 169 252 275 266 217 200 205 201 186 176 189 185 182 172 166 181 174 164 171 200 239 269 290 300 293 297 300 302 302
180 209 229 206 209 189 195 199 209 221 225 229 220 275 148 154 314 296 255 255 228 214 218 198 190 185 177 162 161 171 180 139 192 235 259 276 285 288 283 286 290 299 302 300
211 221 219 250 287 209 204 208 209 222 240 247 337 283 351 64 347 348 329 268 235 225 220 196 193 175 166 160 150 183 218 238 304 289 289 288 289 281 277 284 293 298 300 300
214 218 208 225 236 234 236 229 211 221 222 235 246 263 259 27 314 324 326 265 231 218 203 177 163 144 126 129 209 235 300 312 311 302 297 295 283 275 278 286 292 297 297 298
186 175 197 220 212 217 227 210 207 191 202 219 227 214 82 302 334 331 302 222 157 157 151 147 147 140 135 121 37 347 341 320 309 300 292 287 282 280 282 288 292 294 297 300
182 188 197 190 165 218 130 193 205 201 196 200 154 168 91 63 69 57 46 118 121 122 128 126 113 91 69 57 38 351 336 323 311 302 295 292 289 286 291 290 293 300 304 299
185 183 149 171 205 117 142 172 181 188 198 201 201 158 154 134 136 85 75 86 95 92 86 86 80 74 56 35 6 341 318 317 317 315 312 310 305 298 297 296 300 302 294 290
189 245 210 197 221 225 174 144 142 174 209 187 203 179 163 163 221 118 119 105 97 88 76 70 56 47 35 16 354 345 347 340 334 331 320 311 306 301 297 297 296 295 294 292
177 202 214 195 227 118 122 141 160 207 105 143 172 173 161 176 48 121 114 99 86 79 65 49 38 29 18 9 0 350 339 333 332 321 317 311 305 299 294 295 289 293 291 285
180 197 208 219 222 215 151 149 207 73 99 142 159 151 133 115 118 118 107 95 83 72 50 34 23 14 9 3 349 338 331 336 325 321 315 311 308 308 301 304 298 289 291 296
203 252 197 272 180 115 137 61 93 90 138 152 143 141 134 133 125 115 105 88 66 46 36 18 3 348 356 357 346 336 341 335 331 323 321 319 314 312 307 295 294 292 304 312
141 164 146 169 118 112 124 128 120 144 125 130 126 130 131 116 107 92 79 64 51 37 18 2 354 351 349 360 352 346 348 340 328 323 318 316 318 313 314 309 301 304 305 302
68 170 141 93 121 126 114 113 120 116 114 113 106 101 101 103 93 95 79 54 40 30 19 10 4 351 344 339 331 335 345 339 322 318 307 304 311 311 310 308 312 309 296 288
192 145 193 187 155 202 142 140 133 128 123 118 113 100 83 85 84 80 75 51 33 25 10 355 344 332 337 335 330 345 342 332 319 321 322 324 313 311 311 308 311 256 239 270